Eddersheim, Germany

12:08 AM CEST on June 28, 2017 (GMT +0200)
Eddersheim

Weather History for 10637 - July, 2013

Change the Weather History Date:

Wednesday, July 31, 2013

  Actual Average Record
Temperature  
Mean Temperature 72 °F -  
Max Temperature 81 °F 75 °F - ()
Min Temperature 64 °F 56 °F - ()
Cooling Degree Days 8    
Growing Degree Days 22 (Base 50)    
Moisture  
Dew Point 57 °F    
Average Humidity 59    
Maximum Humidity 83    
Minimum Humidity 32    
Precipitation  
Precipitation 0.00 in - - ()
Sea Level Pressure  
Sea Level Pressure 30.08 in    
Wind  
Wind Speed 11 mph ()    
Max Wind Speed 18 mph    
Max Gust Speed 25 mph    
Visibility 6.2 miles    
Events Rain    
T = Trace of Precipitation, MM = Missing Value Source: Averaged Metar Reports

Daily Weather History Graph

Daily Weather History Graph

Search for Another Location

Airport or City:

Trip Planner

Search our weather history database for the weather conditions in past years. The results will help you decide how hot, cold, wet, or windy it might be!

Date:

Astronomy

Jul. 31, 2013 Rise Set
Actual Time 5:53 AM CEST 9:09 PM CEST
Civil Twilight 5:14 AM CEST 9:48 PM CEST
Nautical Twilight 4:22 AM CEST 10:39 PM CEST
Astronomical Twilight 3:15 AM CEST 11:46 PM CEST
Moon 12:40 AM CEST (7/31) 4:11 PM CEST (7/31)
Length of Visible Light 16h 33m
Length of Day
15h 16m
Waning Crescent, 34% of the Moon is Illuminated
Jul 31
Waning Crescent
Aug 6
New
Aug 14
First Quarter
Aug 21
Full
Aug 28
Last Quarter

Hourly Weather History & Observations

Time (CEST) Temp. Heat Index Dew Point Humidity Pressure Visibility Wind Dir Wind Speed Gust Speed Precip Events Conditions
12:00 AM 69 °F - 56 °F 55% 30.08 in 44 mi SSW 8.9 mph - -   Mostly Cloudy
12:20 AM 69.8 °F - 57.2 °F 64% 30.06 in 6.2 mi SW 12.7 mph - N/A   Mostly Cloudy
12:50 AM 66.2 °F - 59.0 °F 78% 30.06 in 6.2 mi SW 13.8 mph - N/A Rain Light Rain Showers
1:00 AM 67 °F - 60 °F 71% 30.08 in 28 mi SW 13.4 mph - - Rain Light Rain Showers
1:20 AM 66.2 °F - 60.8 °F 83% 30.06 in 6.2 mi SW 10.4 mph - N/A   Mostly Cloudy
1:50 AM 66.2 °F - 59.0 °F 78% 30.06 in 6.2 mi SW 6.9 mph - N/A   Mostly Cloudy
2:00 AM 67 °F - 60 °F 71% 30.06 in 37 mi SW 6.7 mph - - Rain Light Rain Showers
2:20 AM 68.0 °F - 59.0 °F 73% 30.06 in 6.2 mi SSW 9.2 mph - N/A   Mostly Cloudy
2:50 AM 68.0 °F - 60.8 °F 78% 30.04 in 6.2 mi SSW 9.2 mph - N/A   Mostly Cloudy
3:00 AM 67 °F - 60 °F 71% 30.05 in 37 mi SSW 8.9 mph - -   Mostly Cloudy
3:20 AM 68.0 °F - 59.0 °F 73% 30.06 in 6.2 mi SSW 10.4 mph - N/A   Mostly Cloudy
3:50 AM 68.0 °F - 59.0 °F 73% 30.04 in 6.2 mi SSW 11.5 mph - N/A   Mostly Cloudy
4:00 AM 68 °F - 59 °F 67% 30.05 in 37 mi SSW 11.2 mph - -   Mostly Cloudy
4:20 AM 68.0 °F - 59.0 °F 73% 30.04 in 6.2 mi SSW 12.7 mph - N/A   Mostly Cloudy
4:50 AM 68.0 °F - 59.0 °F 73% 30.04 in 6.2 mi SSW 13.8 mph - N/A   Mostly Cloudy
5:20 AM 68.0 °F - 59.0 °F 73% 30.06 in 6.2 mi SSW 13.8 mph - N/A   Partly Cloudy
5:50 AM 66.2 °F - 59.0 °F 78% 30.06 in 6.2 mi SW 13.8 mph 25.3 mph N/A   Scattered Clouds
6:00 AM 67 °F - 59 °F 70% 30.06 in 25 mi SW 13.4 mph - -   Partly Cloudy
6:20 AM 68.0 °F - 59.0 °F 73% 30.06 in 6.2 mi SW 13.8 mph - N/A   Scattered Clouds
6:50 AM 68.0 °F - 59.0 °F 73% 30.06 in 6.2 mi SSW 15.0 mph - N/A   Scattered Clouds
7:00 AM 67 °F - 60 °F 71% 30.06 in 25 mi SSW 15.7 mph - -   Partly Cloudy
7:20 AM 68.0 °F - 60.8 °F 78% 30.06 in 6.2 mi SW 13.8 mph - N/A   Scattered Clouds
7:50 AM 69.8 °F - 60.8 °F 73% 30.06 in 6.2 mi SW 12.7 mph - N/A   Scattered Clouds
8:00 AM 69 °F - 61 °F 68% 30.07 in 25 mi SW 11.2 mph - -   Partly Cloudy
8:20 AM 71.6 °F - 60.8 °F 69% 30.06 in 6.2 mi SW 13.8 mph - N/A   Scattered Clouds
8:50 AM 69.8 °F - 60.8 °F 73% 30.09 in 6.2 mi SW 15.0 mph - N/A   Scattered Clouds
9:00 AM 70 °F - 60 °F 63% 30.09 in 25 mi SW 15.7 mph - -   Scattered Clouds
9:20 AM 71.6 °F - 59.0 °F 64% 30.09 in 6.2 mi SW 12.7 mph - N/A   Scattered Clouds
9:50 AM 71.6 °F - 60.8 °F 69% 30.09 in 6.2 mi SW 15.0 mph - N/A   Scattered Clouds
10:00 AM 72 °F - 60 °F 56% 30.09 in 25 mi SW 15.7 mph - - Rain Light Rain
10:20 AM 73.4 °F - 59.0 °F 61% 30.09 in 6.2 mi SW 17.3 mph - N/A   Scattered Clouds
10:50 AM 73.4 °F - 57.2 °F 57% 30.09 in 6.2 mi SW 16.1 mph - N/A   Scattered Clouds
11:20 AM 77.0 °F - 55.4 °F 47% 30.09 in 6.2 mi WSW 18.4 mph - N/A   Scattered Clouds
11:50 AM 75.2 °F - 55.4 °F 50% 30.09 in 6.2 mi SW 18.4 mph - N/A   Scattered Clouds
12:00 PM 76 °F - 56 °F 39% 30.10 in 37 mi SW 17.9 mph - -   Mostly Cloudy
12:20 PM 75.2 °F - 53.6 °F 47% 30.09 in 6.2 mi WSW 17.3 mph - N/A   Mostly Cloudy
12:50 PM 77.0 °F - 53.6 °F 44% 30.09 in 6.2 mi WSW 15.0 mph - N/A   Mostly Cloudy
1:20 PM 77.0 °F - 51.8 °F 41% 30.09 in 6.2 mi WSW 12.7 mph - N/A   Scattered Clouds
1:50 PM 75.2 °F - 55.4 °F 50% 30.09 in 6.2 mi SW 13.8 mph - N/A   Mostly Cloudy
2:00 PM 76 °F - 55 °F 38% 30.10 in 44 mi SW 13.4 mph - -   Partly Cloudy
2:20 PM 77.0 °F - 55.4 °F 47% 30.09 in 6.2 mi SW 13.8 mph - N/A   Mostly Cloudy
2:50 PM 78.8 °F - 55.4 °F 44% 30.09 in 6.2 mi SW 16.1 mph - N/A   Mostly Cloudy
3:00 PM 78 °F - 55 °F 35% 30.10 in 44 mi SW 15.7 mph - -   Mostly Cloudy
3:20 PM 77.0 °F - 55.4 °F 47% 30.09 in 6.2 mi SW 15.0 mph - N/A   Mostly Cloudy
3:50 PM 78.8 °F - 55.4 °F 44% 30.09 in 6.2 mi WSW 16.1 mph - N/A   Mostly Cloudy
4:00 PM 80 °F - 56 °F 33% 30.10 in 44 mi WSW 15.7 mph - -   Mostly Cloudy
4:20 PM 78.8 °F - 55.4 °F 44% 30.09 in 6.2 mi WSW 16.1 mph - N/A   Scattered Clouds
4:50 PM 78.8 °F - 55.4 °F 44% 30.09 in - WSW 15.0 mph - N/A   Clear
5:20 PM 78.8 °F - 55.4 °F 44% 30.09 in - SW 13.8 mph - N/A   Clear
5:50 PM 80.6 °F 80.5 °F 55.4 °F 42% 30.09 in - WSW 12.7 mph - N/A   Clear
6:20 PM 78.8 °F - 55.4 °F 44% 30.09 in - WSW 12.7 mph - N/A   Clear
6:50 PM 80.6 °F 80.5 °F 55.4 °F 42% 30.09 in - WSW 11.5 mph - N/A   Clear
7:00 PM 80 °F - 55 °F 32% 30.08 in 44 mi WSW 11.2 mph - -   Scattered Clouds
7:20 PM 78.8 °F - 55.4 °F 44% 30.09 in - West 10.4 mph - N/A   Clear
7:50 PM 78.8 °F - 55.4 °F 44% 30.09 in - WSW 12.7 mph - N/A   Clear
8:00 PM 78 °F - 54 °F 33% 30.09 in 44 mi WSW 11.2 mph - -   Partly Cloudy
8:20 PM 77.0 °F - 55.4 °F 47% 30.09 in - SW 9.2 mph - N/A   Clear
8:50 PM 75.2 °F - 55.4 °F 50% 30.09 in - SW 6.9 mph - N/A   Clear
9:00 PM 76 °F - 56 °F 39% 30.09 in 40 mi SW 6.7 mph - -   Scattered Clouds
9:20 PM 73.4 °F - 55.4 °F 53% 30.09 in - SW 6.9 mph - N/A   Clear
9:50 PM 71.6 °F - 57.2 °F 60% 30.09 in - South 3.5 mph - N/A   Clear
10:00 PM 72 °F - 58 °F 51% 30.10 in 37 mi South 4.5 mph - -   Scattered Clouds
10:20 PM 69.8 °F - 57.2 °F 64% 30.12 in - SE 2.3 mph - N/A   Clear
10:50 PM 68.0 °F - 59.0 °F 73% 30.12 in - ENE 2.3 mph - N/A   Clear
11:20 PM 64.4 °F - 57.2 °F 77% 30.12 in - ESE 2.3 mph - N/A   Clear
11:50 PM 64.4 °F - 59.0 °F 83% 30.12 in - ESE 2.3 mph - N/A   Clear